Location: Stara Lesna
(49.1528°N, 20.2911°E)
Time: 10:01:50
(UTC+02:00)

Cosmos 1697 Rocket - Pass Details

Date: 13 July 2020
Orbit: 834 x 842 km, 71.0° (Epoch: 06 August)

Event Time Altitude Azimuth Distance (km) Brightness Sun altitude
Rises 02:41:10 0° 331° (NNW) 3,400 6.3 -14.5°
Reaches altitude 10° 02:43:37 10° 332° (NNW) 2,460 5.6 -14.3°
Maximum altitude 02:49:17 88° 63° (ENE) 843 2.7 -13.8°
Drops below altitude 10° 02:54:54 10° 153° (SSE) 2,439 4.8 -13.4°
Sets 02:57:19 0° 153° (SSE) 3,369 5.5 -13.2°
